This demonstration page uses our WeatherBlox Daily Observations layout. Learn more.

Left ArrowRight Arrow

38.89511, -77.03637

Hourly Observations for January 1, 2019

Temp ( °F °C ) Dew Point ( °F °C ) Humidity (%) Winds ( mph kmh ) Pressure ( in mb ) Visibility ( mi km ) Precip ( " mm )
12:33 am 00:33 Mostly Cloudy with Drizzle 50 10 48 8.9 93 93 S 13 20 29.80 1009 0 0 0.00 0.03
12:52 am 00:52 Mostly Cloudy with Mist and Fog 51 10.6 49 9.4 92 92 S 15 24 29.78 1009 1 1 0.00 0.03
12:55 am 00:55 Cloudy with Mist and Fog 51 10.6 50 10 96 96 S 16 26 29.77 1008 1 2 0.00 0.00
1:30 am 01:30 Cloudy 56 13.3 54 12.2 93 93 SSW 16 26 29.77 1008 10 16 0.00 0.00
1:52 am 01:52 Cloudy 57 13.9 54 12.2 90 90 SSW 16 26 29.77 1008 10 16 0.00 0.00
2:06 am 02:06 Cloudy 58 14.4 55 12.8 90 90 SSW 18 30 29.77 1008 10 16 0.00 0.00
2:21 am 02:21 Cloudy with Light Rain 59 15 56 13.3 90 90 SW 16 26 29.80 1009 10 16 0.00 0.03
2:52 am 02:52 Cloudy 61 16.1 57 13.9 87 87 SSW 18 30 29.75 1008 10 16 0.00 0.03
3:52 am 03:52 Cloudy 62 16.7 57 13.9 84 84 SSW 13 20 29.74 1007 10 16 0.00 0.00
4:52 am 04:52 Cloudy 63 17.2 57 13.9 81 81 SSW 14 22 29.74 1007 10 16 0.00 0.00
5:52 am 05:52 Cloudy 61 16.1 57 13.9 87 87 SW 7 11 29.77 1008 10 16 0.00 0.00
6:52 am 06:52 Mostly Cloudy 62 16.7 56 13.3 80 80 WSW 8 13 29.81 1009 10 16 0.00 0.00
7:52 am 07:52 Mostly Cloudy 62 16.7 56 13.3 80 80 SW 8 13 29.82 1010 10 16 0.00 0.00
8:52 am 08:52 Mostly Cloudy 61 16.1 55 12.8 81 81 S 12 19 29.89 1012 10 16 0.00 0.00
9:52 am 09:52 Mostly Cloudy 64 17.8 47 8.3 54 54 WNW 10 17 29.92 1013 10 16 0.00 0.00
10:52 am 10:52 Cloudy 63 17.2 45 7.2 52 52 NW 14 22 29.94 1014 10 16 0.00 0.00
11:52 am 11:52 Cloudy 61 16.1 44 6.7 54 54 NNW 17 28 29.96 1015 10 16 0.00 0.00
12:52 pm 12:52 Cloudy 61 16.1 42 5.6 50 50 NW 14 22 29.97 1015 10 16 0.00 0.00
1:52 pm 13:52 Cloudy 59 15 42 5.6 54 54 NW 17 28 30.01 1016 10 16 0.00 0.00
2:52 pm 14:52 Cloudy 56 13.3 41 5 57 57 NNW 12 19 30.05 1018 10 16 0.00 0.00
3:52 pm 15:52 Cloudy 54 12.2 39 3.9 57 57 NNW 17 28 30.09 1019 10 16 0.00 0.00
4:52 pm 16:52 Mostly Cloudy 53 11.7 38 3.3 57 57 NNW 15 24 30.12 1020 10 16 0.00 0.00
5:52 pm 17:52 Cloudy 52 11.1 37 2.8 57 57 NNW 17 28 30.15 1021 10 16 0.00 0.00
6:52 pm 18:52 Cloudy 51 10.6 37 2.8 59 59 NNW 13 20 30.19 1022 10 16 0.00 0.00
7:52 pm 19:52 Cloudy 49 9.4 36 2.2 61 61 NNW 12 19 30.21 1023 10 16 0.00 0.00
8:52 pm 20:52 Cloudy 49 9.4 35 1.7 59 59 NNW 12 19 30.22 1023 10 16 0.00 0.00
9:52 pm 21:52 Cloudy 48 8.9 34 1.1 58 58 N 7 11 30.21 1023 10 16 0.00 0.00
10:52 pm 22:52 Cloudy 48 8.9 34 1.1 58 58 NNW 5 7 30.21 1023 10 16 0.00 0.00
11:52 pm 23:52 Cloudy 45 7.2 34 1.1 66 66 N 8 13 30.22 1023 10 16 0.00 0.00

Powered by AerisWeather